Home > Time Zones > World Clock > Weather > China > Hefei > Past weeks

Flag for China Weather past 2 weeks in Hefei, China

Now
59 °F

Clear.


Feels Like: 58 °F
Forecast: 56 / 74 °F
Wind: 8 mph from East

Location: Hefei Airport


UV Index: 7 (High)

Visibility: 5 mi


Pressure: 29.95 "Hg

Humidity: 68%

Dew point: 48 °F

Location of HefeiLocation

Historic Weather in Hefei

°F

Hefei temperature yesterday

Maximum temperature yesterday: 72 °F (at 1:00 PM)
Minimum temperature yesterday: 54 °F (at 5:00 AM)
Average temperature yesterday: 63 °F

Past Weeks' High & Low Weather Summary

 TemperatureHumidityPressure
High82 °F (Apr 10, 12:00 PM)100% (Apr 11, 11:00 AM)30.18 "Hg (Apr 11, 11:00 AM)
Low50 °F (Apr 14, 6:00 AM)35% (Apr 10, 1:00 PM)29.77 "Hg (Apr 17, 4:00 AM)
Average61 °F85%29.98 "Hg
* Reported Apr 9 6:00 AM — Apr 24 6:00 AM, Hefei, Weather by CustomWeather, © 2014

Note: Actual official high and low records may vary slightly from our data, if they occured in-between our weather recording intervals... More about our weather records

Advertising

Historic Weather Conditions — Data for Previous 24 hours

 ConditionsComfort  
Time TempWeatherWind HumidityBarometerVisibility
6:00 AM
Apr 24
55 °FClear.6 mph82%29.92 "Hg4 mi
5:00 AM55 °FClear.6 mph82%29.92 "Hg4 mi
4:00 AM55 °FClear.3 mph88%29.89 "Hg4 mi
3:00 AM57 °FClear.6 mph82%29.89 "Hg4 mi
2:00 AM57 °FClear.3 mph82%29.89 "Hg5 mi
1:00 AM61 °FClear.6 mph72%29.92 "Hg5 mi
12:00 AM61 °FClear.3 mph77%29.92 "Hg10 mi
11:00 PM
Apr 23
63 °FClear.6 mph73%29.92 "Hg10 mi
10:00 PM64 °FClear.6 mph68%29.92 "Hg10 mi
9:00 PM64 °FPassing clouds.6 mph73%29.92 "HgN/A
8:00 PM66 °FOvercast.6 mph73%29.92 "HgN/A
7:00 PM68 °FOvercast.6 mph69%29.92 "HgN/A
6:00 PM68 °FOvercast.3 mph73%29.89 "HgN/A
5:00 PM70 °FScattered clouds.8 mph64%29.89 "HgN/A
4:00 PM70 °FPassing clouds.8 mph64%29.89 "HgN/A
3:00 PM72 °FPassing clouds.10 mph61%29.89 "HgN/A
2:00 PM72 °FPassing clouds.10 mph61%29.92 "HgN/A
1:00 PM72 °FPassing clouds.10 mph61%29.95 "HgN/A
12:00 PM70 °FScattered clouds.10 mph64%29.95 "HgN/A
11:00 AM68 °FClear.8 mph64%29.98 "Hg6 mi
10:00 AM64 °FClear.8 mph68%30.01 "Hg4 mi
9:00 AM64 °FHaze.10 mph68%30.01 "Hg3 mi
8:00 AM61 °FFog.8 mph77%29.98 "Hg2 mi
7:00 AM57 °FFog.6 mph88%30.01 "Hg2 mi
Weather by CustomWeather, © 2014

See weather overview